Location: Guilderland
(42.7045°N, 73.9115°W)
Time: 14:58:05
(UTC+00:00)

Atlas Centaur 2 - Pass Details

Date: 24 January 2020
Orbit: 459 x 1310 km, 30.4° (Epoch: 23 February)

Event Time Altitude Azimuth Distance (km) Brightness Sun altitude
Rises 22:21:28 0° 213° (SSW) 2,670 5.8 -4.8°
Reaches altitude 10° 22:24:56 10° 181° (S) 1,929 4.4 -5.4°
Maximum altitude 22:26:38 12° 158° (SSE) 1,882 4.0 -5.7°
Drops below altitude 10° 22:28:27 10° 136° (SE) 2,104 4.1 -6.0°
Enters shadow 22:32:26 - 108° (ESE) 3,179 4.7 -6.7°
